Lake Worth, FL (33460)

4:20 AM EST on February 10, 2016 (GMT -0500)
NOS_NWLON | | Change Station
CLOSE
Current Station
Personal Weather Station
Location: Lake Worth, FL
Elevation: 0 ft
Nearby Weather Stations

Elev 0 ft 26.61 °N, 80.03 °W | Updated 32 minutes ago

Overcast
Overcast
56 °F
Feels Like 56 °F
N
5
Wind Variable Wind from NW
Gusts 9.0 mph

Today
High -- | Low -- °F
--% Chance of Precip.
Yesterday
High -- | Low -- °F
Precip. -- in
Pressure 30.11 in
Visibility 10.0 miles
Clouds Overcast 22000 ft
Dew Point Not available.
Humidity Not available.
Rainfall in
Snow Depth Not available.
7:00 AM 6:09 PM
Waxing Crescent, 4% visible
METAR KPBI 100853Z 32008KT 10SM OVC220 13/07 A3011 RMK AO2 SLP196 T01280067 53002
Pressure 30.11 in
Visibility 10.0 miles
Clouds Overcast 22000 ft
Dew Point Not available.
Humidity Not available.
Rainfall in
Snow Depth Not available.
7:00 AM 6:09 PM
Waxing Crescent, 4% visible
METAR KPBI 100853Z 32008KT 10SM OVC220 13/07 A3011 RMK AO2 SLP196 T01280067 53002

10-Day Weather Forecast

Almanac

Astronomy

Feb. 10, 2016 Rise Set
Actual Time
Civil Twilight
Nautical Twilight
Astronomical Twilight
Moon
Length of Visible Light
Length of Day
Tomorrow will be .
, % of the Moon is Illuminated

Today's Extremes

State Highs State Lows

Community

WunderPhotos

Upload Photos

1,891,826 photos uploaded!

WunderBlog® & News

Nearby

Air Quality

  Air Quality AQ Index Pollutant
Not available.

Snow Depth

Station Depth Elevation

Earthquake Activity

City Distance Mag. Time & Date
Minimum magnitude displayed is 2.5.

Coastal Water Temperatures

Place Temperature

Stations

Nearby Weather Stations

Station Location Temp. Windchill Dew Point Humidity Wind Precip. Elev Updated Type
                   

Watches & Warnings

There are currently no watches in effect.